Regional Weather Roundup
Issued by NWS

Home | Current Version | Previous Version | Text Only | Print | Product List | Glossary Off
Versions: 1 2 3 4 5 6 7 8 9 10 11 12 13 14 15 16 17 18 19 20 21 22 23 24 25 26 27 28 29 30 31 32 33 34 35 36 37 38 39 40 41 42 43 44 45 46 47 48 49 50

000
ASUS43 KMKX 300000
RWRWI

WISCONSIN REGIONAL WEATHER ROUNDUP
NATIONAL WEATHER SERVICE MILWAUKEE/SULLIVAN WI
700 PM CDT SAT APR 29 2017

NOTE: "FAIR" INDICATES FEW OR NO CLOUDS BELOW 12,000 FEET WITH NO
SIGNIFICANT WEATHER AND/OR OBSTRUCTIONS TO VISIBILITY.

WIZ001-002-006>008-014>016-023>028-300100-
NORTHWEST WISCONSIN

CITY           SKY/WX    TMP DP  RH WIND       PRES   REMARKS
SUPERIOR ARPT  CLOUDY    40  25  54 NE9       30.30F WCI  35
ASHLAND        CLOUDY    42  20  41 E13       30.30F
6HR MIN TEMP:  42; 6HR MAX TEMP:  47;

HAYWARD        CLOUDY    46  21  37 NE13      30.22F
6HR MIN TEMP:  46; 6HR MAX TEMP:  52;

SIREN          MOSUNNY   51  19  28 NE8G20    30.22F
CUMBERLAND     CLOUDY    48  21  34 NE18G24   30.17F
RICE LAKE      CLOUDY    50  25  37 N18G25    30.16F
6HR MIN TEMP:  50; 6HR MAX TEMP:  55;

CHETEK         NOT AVBL
LADYSMITH      CLOUDY    50  25  38 NE18G24   30.16F
6HR MIN TEMP:  50; 6HR MAX TEMP:  54;

EAU CLAIRE     CLOUDY    52  24  33 NE15      30.14F
6HR MIN TEMP:  51; 6HR MAX TEMP:  54;

MENOMONIE      MOSUNNY   53  23  31 NE13G22   30.14S
6HR MIN TEMP:  50; 6HR MAX TEMP:  55;

NEW RICHMOND   PTSUNNY   52  22  30 NE14      30.15F
OSCEOLA        MOSUNNY   53  23  30 NE18G24   30.18F
$$

WIZ003>005-009-010-017-018-300100-
NORTH CENTRAL WISCONSIN

CITY           SKY/WX    TMP DP  RH WIND       PRES   REMARKS
MANITOWISH WTR CLOUDY    44  25  48 NE10G17   30.25F
ARBOR VITAE    CLOUDY    47  20  34 NE13      30.23F
WOODRUFF       CLOUDY    47  20  34 NE13      30.23F
RHINELANDER    MOCLDY    48  23  37 NE7       30.22F
6HR MIN TEMP:  48; 6HR MAX TEMP:  51;

EAGLE RIVER    MOCLDY    46  18  32 NE10G20   30.24F
LAND O LAKES   CLOUDY    43  25  48 N13G20    30.27F
6HR MIN TEMP:  43; 6HR MAX TEMP:  49;

PHILLIPS       MOSUNNY   47  24  40 NE13      30.19F
6HR MIN TEMP:  47; 6HR MAX TEMP:  50;

TOMAHAWK       MOCLDY    47  24  39 N10G21    30.20F
MEDFORD        CLOUDY    47  27  44 NE14G22   30.17F
MERRILL        MOCLDY    49  27  43 E14G20    30.19F
6HR MIN TEMP:  49; 6HR MAX TEMP:  51;

$$

WIZ029-030-035-036-043>047-300100-
CENTRAL WISCONSIN

CITY           SKY/WX    TMP DP  RH WIND       PRES   REMARKS
WAUSAU         CLOUDY    50  25  37 NE13      30.17F
6HR MIN TEMP:  49; 6HR MAX TEMP:  52;

MOSINEE        CLOUDY    48  27  43 E13       30.19F
MARSHFIELD     CLOUDY    50  27  40 E15       30.14F
6HR MIN TEMP:  48; 6HR MAX TEMP:  51;

STEVENS POINT  CLOUDY    46  31  56 E12       30.21S
WAUPACA        CLOUDY    47  29  50 E10       30.23F
6HR MIN TEMP:  47; 6HR MAX TEMP:  50;

WAUTOMA        CLOUDY    45  30  55 MISG      30.22F
6HR MIN TEMP:  45; 6HR MAX TEMP:  48;

WISC RAPIDS    CLOUDY    48  31  51 E12       30.19F
6HR MIN TEMP:  48; 6HR MAX TEMP:  50;

CAMP DOUGLAS   NOT AVBL
$$

WIZ011>013-019>022-031-037>040-048>050-300100-
NORTHEAST WISCONSIN

CITY           SKY/WX    TMP DP  RH WIND       PRES   REMARKS
ANTIGO         CLOUDY    47  27  46 NE14      30.20F
SHAWANO        CLOUDY    47  31  53 E9        30.25R
6HR MIN TEMP:  47; 6HR MAX TEMP:  52;

OCONTO         MOCLDY    46  27  48 E8G17     30.26R
STURGEON BAY   CLOUDY    46  27  47 NE6       30.27R
6HR MIN TEMP:  44; 6HR MAX TEMP:  46;

GREEN BAY      CLOUDY    47  32  56 E14       30.26R
6HR MIN TEMP:  45; 6HR MAX TEMP:  48;

MANITOWOC      NOT AVBL
APPLETON       CLOUDY    45  27  49 NE14G21   30.23S
CLINTONVILLE   CLOUDY    45  28  53 E8        30.24S
OSHKOSH        CLOUDY    44  30  57 E14G21    30.22F
6HR MIN TEMP:  44; 6HR MAX TEMP:  46;

$$

WIZ032>034-041-042-053>061-300100-
SOUTHWEST WISCONSIN

CITY           SKY/WX    TMP DP  RH WIND       PRES   REMARKS
LA CROSSE      PTSUNNY   50  29  44 E14G23    30.13F
6HR MIN TEMP:  49; 6HR MAX TEMP:  52;

SPARTA         CLOUDY    48  31  51 E17G26    30.13F
VIROQUA        MOSUNNY   45  31  58 E22G33    30.08F
6HR MIN TEMP:  44; 6HR MAX TEMP:  46;

BOSCOBEL       CLOUDY    44  34  67 E14G30    30.08F
6HR MIN TEMP:  44; 6HR MAX TEMP:  48; 6HR PCP:  0.02;

PRAIRIE DU CHI CLOUDY    43  34  69 E22G31    30.05F
PLATTEVILLE    CLOUDY    42  39  89 NE30G38   30.03F
$$

WIZ056-057-062-063-064-067-068-300100-
SOUTH CENTRAL WISCONSIN

CITY           SKY/WX    TMP DP  RH WIND       PRES   REMARKS
REEDSBURG      CLOUDY    44  30  58 E17G23    30.17F
BARABOO/DELLS  DRIZZLE   43  32  65 E14       30.18F
LONE ROCK      NOT AVBL
MINERAL POINT  CLOUDY    41  39  93 NE20G31   30.09F
MADISON        LGT RAIN  38  34  85 NE20G26   30.17F WCI  28
6HR MIN TEMP:  38; 6HR MAX TEMP:  45; 6HR PCP:  0.05;

MIDDLETON      CLOUDY    41  37  86 E16       30.18F
WATERTOWN      LGT RAIN  37  34  87 NE13G18   30.20F WCI  29
MONROE         LGT RAIN  37  36  93 NE22G31   30.10F WCI  27
JANESVILLE     LGT RAIN  39  39 100 NE18G24   30.12F WCI  30
$$

WIZ051-052-058>065-066-070>072-300100-
SOUTHEAST WISCONSIN

CITY           SKY/WX    TMP DP  RH WIND       PRES   REMARKS
MILWAUKEE      LGT RAIN  39  36  89 N17G25    30.20F FOG     WCI  30
6HR MIN TEMP:  39; 6HR MAX TEMP:  41; 6HR PCP:  0.13;

WAUKESHA       LGT RAIN  36  32  87 NE10G18   30.21F WCI  28
MILWAUKEE/TIMM RAIN      37  32  81 N16G24    30.22F WCI  28
RACINE         RAIN      39  35  86 N18G30    30.19F FOG     WCI  30
6HR MIN TEMP:  38; 6HR MAX TEMP:  41; 6HR PCP:  0.20;

KENOSHA        RAIN      38  35  89 NE16G25   30.17F FOG     WCI  29
6HR MIN TEMP:  38; 6HR MAX TEMP:  41; 6HR PCP:  0.31;

FOND DU LAC    CLOUDY    44  25  47 E15       30.23F
6HR MIN TEMP:  44; 6HR MAX TEMP:  46;

SHEBOYGAN      CLOUDY    42  34  73 NE17      30.26R
6HR MIN TEMP:  40; 6HR MAX TEMP:  43;

WEST BEND      RAIN      36  32  87 NE10G16   30.25S WCI  28
JUNEAU         LGT RAIN  37  32  81 NE9       30.24F WCI  31
$$

LSZ147-162-300100-
LAKE SUPERIOR

STATION/POSITION TIME  TEMP    WIND        PRES    WAVE
                       AIR SEA DIR/SP/G            HT/PER
                 (UTC) (F)     (DEG/KT/KT) (MB)    (FT/S)
DEVILS ISLAND    2300   38      70/  8/  8 1028.8F
SAXON HARBOR     2340   38      40/ 11/ 12 1026.1F
$$

LMZ867-665-643>646-300100-
LAKE MICHIGAN

STATION/POSITION TIME  TEMP    WIND        PRES    WAVE
                       AIR SEA DIR/SP/G            HT/PER
                 (UTC) (F)     (DEG/KT/KT) (MB)    (FT/S)
CHAMBERS ISLAND  2340   44      30/ 13/ 17 1024.0F
N MID LAKE BUOY  2250   39 37  340/  4/  6 1026.8F   1
NORTHPORT PIER   2340   45      20/ 10/ 14 1024.4F
SISTER BAY       2251   45      20/ 10/ 12   N/A
KEWAUNEE LAKESHO 2330   42      40/  8/ 10 1024.5R
SHEBOYGAN LAKESH 2300   40      20/ 22/ 24 1024.7R
PORT WASHINGTON  2330   39      20/ 10/ 15 1025.4R
MILWAUKEE LAKESH 2330   39      20/ 21/ 25   N/A
S MID LAKE BUOY  2250   40 41   10/ 16/ 17 1022.4R   7/ 7
KENOSHA   LAKESH 2300   39      10/ 26/ 29 1022.0
$$

TC  - TEMPERATURE IN CELSIUS
VSB - VISIBILITY IN STATUTE MILES
WCI - WIND CHILL INDEX
HX  - HEAT INDEX





USA.gov is the U.S. government's official web portal to all federal, state and local government web resources and services.